GFSNE_sfc_dewp_132.txt.gz
Dewpoint
54 56 59 60 61 61 60 59 56 50 51 53 57 60 62 62 60 60 60 56 51 51 51 53 55 56 56 57 58 59 60 60 59 58 58 58 57 57
49 50 57 59 61 61 60 59 58 55 52 54 55 57 61 61 60 61 61 55 50 50 49 50 51 52 53 55 56 57 58 58 58 57 57 57 57 57
50 53 54 56 59 59 59 58 57 56 53 56 57 58 58 60 61 60 61 60 59 49 49 48 48 49 50 51 52 53 55 55 56 56 57 57 58 57
49 52 53 56 57 57 56 57 57 57 56 54 56 57 57 59 60 60 60 60 60 53 50 49 48 47 48 48 49 50 50 51 52 53 54 55 56 57
40 39 39 43 52 55 55 55 56 57 57 56 55 58 58 57 59 60 60 60 59 55 49 48 48 48 48 48 49 49 48 49 49 49 50 50 52 54
36 37 36 36 36 41 47 46 54 56 56 55 55 55 56 57 57 57 57 58 58 59 53 51 48 47 48 47 47 48 47 47 47 47 47 46 46 49
32 32 34 36 35 35 35 36 38 45 54 55 54 54 55 55 55 57 57 57 56 54 56 55 53 52 49 46 48 47 46 45 46 46 46 45 45 45
28 29 30 32 32 32 32 32 33 34 40 42 38 43 38 35 38 42 51 53 51 44 50 53 54 53 52 47 41 42 44 44 44 44 45 44 44 43
26 26 27 28 29 30 29 29 30 31 31 32 31 31 31 31 33 36 37 38 40 36 42 45 43 43 39 38 38 39 39 39 40 41 41 42 41 41
26 26 26 26 28 28 28 27 27 28 29 29 29 29 30 31 32 34 34 35 36 33 31 37 35 35 36 36 37 37 37 37 37 37 38 38 39 39
22 25 24 25 28 28 24 24 24 25 29 29 30 29 29 29 29 30 29 34 33 31 28 29 33 33 33 32 33 34 34 34 34 34 36 37 37 38
18 20 23 23 24 23 21 21 20 21 24 24 25 25 26 26 27 26 26 25 27 30 27 26 31 32 33 31 31 31 32 32 32 33 34 35 35 38
15 16 18 20 21 21 20 19 19 20 20 21 22 22 22 23 24 25 25 26 23 23 26 26 26 29 31 31 31 29 29 30 30 32 30 31 33 34
12 13 14 16 16 17 15 17 17 15 16 16 16 17 19 21 21 23 24 25 26 25 26 26 25 25 25 26 29 30 29 28 29 29 29 30 30 30
11 12 12 12 12 11 12 12 10 10 11 11 12 14 16 19 20 20 21 22 25 23 24 23 23 24 26 26 26 28 26 27 27 27 28 27 28 29
7 6 7 10 4 5 6 6 6 7 8 8 9 11 14 15 16 17 17 17 18 18 21 22 21 22 22 23 24 23 25 24 26 27 26 26 26 28
3 3 2 3 2 1 1 0 1 2 3 6 6 7 8 10 12 14 14 14 14 15 16 18 21 21 23 20 20 20 23 24 25 26 25 23 25 26
1 -1 -1 -0 -0 -1 -2 -2 -2 -2 -1 3 3 4 5 6 8 11 12 10 10 12 14 16 17 16 16 20 21 19 20 23 25 25 25 22 22 25
1 -1 -2 -2 0 -1 -2 -3 -4 -3 -2 -2 -1 0 1 3 6 8 9 8 8 9 11 13 16 16 11 10 15 20 20 21 23 22 22 22 21 23
4 2 -1 0 1 -0 -2 -4 -5 -5 -5 -5 -3 -3 -3 1 3 4 6 5 6 7 8 9 11 13 14 13 13 15 20 22 22 21 20 22 22 23
4 4 2 1 1 0 -5 -8 -11 -8 -8 -10 -6 -6 -6 -3 -1 1 3 3 3 4 5 6 9 14 18 19 14 14 16 21 25 22 21 19 18 18
3 4 4 2 -2 -1 -4 -11 -5 -8 -6 -6 -7 -6 -6 -4 -2 0 1 2 3 4 3 5 8 10 15 14 13 13 14 17 20 22 23 23 20 17
1 2 3 2 -2 -2 -1 -4 -6 -9 -8 -7 -8 -6 -8 -5 -2 -1 -0 0 1 2 2 3 5 8 9 14 13 13 15 15 17 17 17 21 22 23

GFSNE_sfc_dewp_135.txt.gz
Dewpoint
49 50 53 55 59 60 59 59 56 52 54 57 58 61 62 62 61 64 63 58 51 51 51 53 55 57 57 58 58 59 60 60 60 60 59 59 59 59
46 49 49 52 57 59 59 58 58 56 54 56 57 57 58 57 56 63 63 56 51 49 49 50 52 54 55 55 56 57 58 58 59 59 59 58 58 58
48 48 51 51 52 56 60 59 58 56 54 56 58 59 57 58 59 63 62 62 61 49 48 48 48 50 51 52 53 54 55 56 57 57 57 58 58 58
39 39 40 43 47 55 57 58 59 59 58 55 57 58 58 58 59 61 61 61 61 54 48 48 48 47 48 48 50 50 51 52 53 54 55 56 57 57
34 36 34 35 37 42 43 44 55 58 58 57 56 58 60 60 60 61 61 61 61 56 48 46 47 47 47 47 48 48 49 49 49 50 50 51 52 54
32 32 33 32 32 34 34 35 40 47 56 57 56 57 58 59 60 59 59 60 59 60 55 51 48 47 46 47 48 48 48 48 48 48 47 47 47 49
29 29 32 33 32 32 31 31 33 40 42 45 52 54 55 54 52 52 57 58 59 55 59 56 54 52 51 47 49 48 48 46 47 47 47 46 45 45
26 28 29 30 30 30 30 30 30 29 30 32 31 31 31 30 33 37 42 53 54 38 43 55 55 53 53 51 45 45 45 45 45 45 45 45 44 43
26 26 26 27 27 27 27 27 28 29 28 27 25 26 26 28 30 35 37 37 36 33 36 48 41 41 40 39 40 40 41 41 41 41 42 41 41 41
26 25 25 25 25 25 25 24 25 26 28 28 27 27 27 28 28 30 34 36 36 32 30 34 35 34 36 36 37 38 38 37 37 37 37 37 37 38
22 23 23 23 23 24 23 23 23 23 26 27 27 27 26 27 27 26 25 29 36 29 28 30 32 33 33 32 33 34 34 34 34 35 36 36 36 36
18 20 19 19 19 20 20 20 19 21 23 23 23 25 25 25 26 25 25 24 25 24 28 26 28 31 32 33 33 32 33 32 33 33 33 33 34 38
16 17 18 16 16 17 17 18 17 19 19 21 22 22 24 25 25 25 26 26 23 23 25 26 26 26 28 29 32 31 31 31 31 32 31 31 32 32
14 14 14 12 13 12 13 14 14 14 16 17 17 18 19 21 23 24 24 26 26 25 25 26 26 25 25 27 29 32 31 30 30 30 30 30 30 30
12 12 10 10 9 9 9 9 9 12 13 12 12 14 17 19 21 20 21 23 23 23 25 24 24 24 27 27 27 28 27 29 29 29 29 28 28 29
8 9 8 8 5 6 8 9 9 9 9 9 10 12 13 14 14 15 15 16 17 17 21 23 23 24 24 25 25 25 26 25 28 29 29 28 28 29
8 8 8 6 5 5 5 5 4 4 4 7 8 8 8 9 10 11 12 13 14 14 15 17 23 23 24 25 23 23 24 25 27 27 28 27 29 28
7 7 7 7 5 4 4 3 3 2 2 4 5 4 5 7 7 9 10 10 10 9 11 14 16 17 18 23 22 21 22 23 25 26 26 26 26 27
8 7 8 7 6 3 3 3 2 3 2 2 2 3 4 5 6 6 7 7 7 7 7 9 12 14 14 14 16 18 19 21 23 23 24 24 24 24
7 8 7 7 5 3 2 2 2 2 2 2 3 3 3 3 4 4 4 5 5 4 4 4 6 10 12 14 17 19 19 21 22 23 23 23 24 23
5 5 7 7 6 4 7 7 6 5 3 3 3 2 3 2 2 2 3 2 3 2 2 2 3 10 13 16 17 17 19 19 21 23 23 21 21 21
4 3 4 5 7 7 9 9 7 6 4 3 3 3 3 3 2 1 2 2 1 2 1 1 2 4 9 11 12 14 15 19 19 21 22 22 22 21
2 1 3 5 5 5 4 6 6 6 5 3 3 2 3 2 1 1 1 0 -0 0 1 1 2 3 6 9 12 13 14 16 16 17 20 19 21 22

GFSNE_sfc_dewp_141.txt.gz
Dewpoint
43 44 43 45 48 48 50 52 53 51 52 57 57 61 63 65 64 66 65 55 51 51 52 54 55 57 57 58 59 60 61 62 62 61 61 61 61 61
43 43 44 45 46 48 51 54 56 55 52 56 57 59 60 60 60 63 64 56 52 50 50 52 52 53 54 54 56 57 58 59 60 60 60 60 61 61
36 37 38 41 45 49 52 53 54 55 52 53 59 59 61 60 60 61 60 61 61 52 49 49 49 50 50 51 52 54 56 56 57 58 59 59 60 60
32 32 32 34 38 41 43 45 50 52 53 51 53 57 58 60 59 59 60 59 59 54 50 50 50 49 47 48 48 49 51 52 54 55 56 57 59 59
30 30 30 31 32 35 37 41 43 48 50 51 50 51 57 41 52 59 58 58 57 54 49 47 48 48 47 46 47 48 48 50 50 50 51 53 54 56
29 30 30 29 29 30 31 34 36 41 41 43 42 37 36 38 39 38 41 45 42 42 46 48 50 49 47 46 45 46 46 48 48 49 48 48 48 51
28 28 29 33 31 30 28 29 31 32 33 32 33 32 31 31 32 34 38 41 38 34 40 45 44 43 41 40 39 40 42 45 46 47 48 47 47 48
25 25 25 27 33 32 30 29 29 28 27 27 27 27 28 28 31 33 34 37 38 33 31 41 40 38 38 38 38 38 38 39 40 44 46 47 47 46
21 22 22 23 26 28 28 28 27 28 27 27 26 26 26 28 30 31 32 35 31 29 30 39 34 37 36 36 37 36 36 37 37 37 37 38 40 44
21 21 21 21 23 24 25 26 27 27 28 29 29 28 28 28 30 32 33 34 33 29 27 30 32 33 36 35 35 35 35 35 35 35 36 36 35 37
21 20 19 19 19 22 23 23 25 26 27 25 25 25 25 25 27 30 28 29 30 29 28 28 31 31 34 33 34 33 33 33 34 34 34 34 35 35
20 21 17 18 17 18 20 21 21 24 25 26 26 26 26 26 24 27 28 25 26 27 27 26 30 30 29 34 33 33 34 31 32 32 33 33 33 33
18 19 20 16 16 17 17 20 20 23 23 24 25 25 25 26 26 27 27 28 24 24 26 27 28 28 29 30 34 33 33 32 32 32 31 32 32 32
18 18 19 16 16 15 17 16 17 20 23 22 21 21 22 22 24 25 26 27 29 25 27 27 25 26 26 27 28 31 33 34 34 33 32 31 31 32
18 18 15 15 16 17 14 14 17 19 20 19 19 19 21 22 23 22 23 24 27 29 27 25 25 25 27 25 26 28 28 31 33 33 33 33 32 31
19 19 17 17 16 17 18 18 18 18 17 17 17 17 16 17 16 15 14 17 18 18 22 25 23 24 23 25 25 25 27 25 29 30 30 32 34 33
19 19 18 16 14 14 14 15 14 13 13 15 14 12 11 10 9 10 11 12 13 14 15 16 22 22 24 25 24 23 24 24 25 26 27 28 32 32
17 17 17 17 15 13 12 12 13 10 10 10 11 9 9 10 9 9 8 9 8 7 8 13 16 15 14 18 19 19 21 21 22 24 25 28 26 31
14 14 15 15 13 10 10 10 10 11 10 9 9 9 9 9 11 7 8 7 6 4 4 7 10 12 10 10 12 14 17 20 23 21 21 24 28 27
8 10 11 10 8 7 8 8 9 11 10 8 9 9 9 9 8 6 6 8 4 3 1 1 2 5 7 10 13 15 20 24 22 20 20 22 23 26
5 5 7 7 6 6 9 10 11 10 11 11 10 9 10 7 6 5 5 6 6 1 -0 -1 0 8 8 11 14 14 16 18 21 21 19 19 19 22
7 4 5 6 7 7 8 9 8 8 8 7 10 11 9 8 7 5 6 5 2 1 -1 -1 -1 1 3 5 7 11 12 17 18 20 23 22 19 17
7 5 6 7 7 6 3 5 4 5 6 7 7 7 8 7 8 5 5 3 1 1 -1 -1 -0 0 1 2 7 10 11 16 18 14 15 23 23 22

GFSNE_sfc_dewp_144.txt.gz
Dewpoint
41 42 43 44 43 43 43 46 45 44 45 49 54 57 61 62 62 63 63 57 53 52 53 55 57 57 58 59 60 61 61 62 62 61 61 61 62 62
38 38 38 41 43 44 46 46 48 46 45 49 53 56 58 59 59 60 61 55 51 52 51 52 52 54 54 55 56 57 58 60 60 60 60 60 61 61
34 33 33 35 37 39 43 46 49 50 48 50 53 54 53 53 55 60 60 60 58 50 49 49 50 50 52 52 52 53 54 55 57 59 59 60 60 61
31 30 30 30 32 34 37 39 43 45 49 49 51 51 44 43 46 49 54 51 55 47 47 48 48 47 47 48 48 49 50 52 53 54 56 57 59 59
29 31 30 29 29 30 31 34 36 42 43 46 43 39 42 39 41 43 45 45 43 43 45 43 43 45 45 43 43 44 47 47 48 49 50 51 53 56
27 28 30 30 29 29 28 30 32 33 35 35 33 32 33 35 37 36 40 42 36 37 42 42 41 40 40 40 40 40 41 44 46 46 46 46 46 50
24 25 28 32 33 31 29 28 29 28 28 27 27 27 27 28 30 34 36 39 35 32 36 38 40 39 38 38 38 39 39 39 41 43 45 45 44 46
20 20 22 25 27 29 31 30 28 26 25 25 24 24 25 27 30 32 33 35 34 32 31 35 36 35 35 36 37 37 37 37 37 38 38 38 39 41
18 19 19 21 23 24 25 26 26 26 26 25 23 24 24 26 29 29 33 31 28 27 28 33 32 32 33 35 36 36 36 36 36 36 36 36 36 37
18 18 18 19 21 22 23 23 24 25 25 25 25 25 25 25 26 28 28 32 31 26 26 27 31 30 34 34 34 34 34 34 35 35 35 35 35 36
17 17 17 17 20 22 19 19 21 22 25 24 23 24 23 24 25 25 23 23 28 24 23 26 28 27 31 32 33 33 32 32 32 32 34 34 34 34
17 17 19 17 19 19 17 17 17 19 19 20 21 21 23 22 24 23 25 20 21 20 23 23 24 25 24 32 32 33 32 32 32 32 32 32 33 32
17 17 18 18 18 18 18 16 17 18 18 18 18 18 18 20 19 22 21 23 19 16 21 22 22 21 22 23 27 28 31 32 32 32 32 32 31 32
17 18 18 18 17 17 16 16 16 16 16 15 14 14 15 16 17 18 19 20 23 17 18 18 17 19 21 21 20 24 27 27 30 29 29 30 32 31
20 18 17 16 16 17 16 15 14 14 13 12 12 12 15 15 15 15 17 17 18 17 21 17 16 18 18 18 20 23 23 23 26 25 25 27 31 28
20 19 17 18 13 13 15 14 13 13 12 12 11 12 12 12 12 12 12 12 12 11 15 17 16 17 15 18 23 19 19 20 23 22 23 25 27 31
18 17 16 15 14 14 13 13 12 11 10 12 10 9 9 10 9 9 10 9 8 7 8 11 14 16 15 14 16 13 15 16 19 21 22 21 24 29
15 13 12 12 11 11 10 11 12 10 10 10 10 9 7 8 8 8 8 7 6 5 7 7 9 8 7 8 11 10 12 13 16 19 21 18 19 24
11 11 10 10 9 9 9 9 9 11 12 10 10 9 8 7 8 6 7 6 4 4 4 4 5 5 1 0 6 11 10 13 20 20 19 18 18 19
8 8 8 8 7 7 8 8 8 9 9 9 10 8 6 7 7 5 5 4 3 3 1 1 1 2 2 3 5 9 13 12 13 15 18 19 19 22
6 6 7 7 7 7 7 7 6 6 7 6 7 7 6 6 6 6 5 3 2 1 0 -1 0 6 4 6 4 5 8 12 13 14 16 16 17 17
7 5 5 6 6 5 4 4 4 4 4 6 5 4 4 5 6 5 4 3 2 2 -0 -1 0 0 2 2 1 3 6 9 12 13 17 20 19 15
6 5 4 4 3 3 1 1 1 1 3 4 2 1 1 3 6 6 4 4 2 1 -1 -1 -1 -0 -0 0 2 4 5 6 8 10 14 21 20 21